[[{"header":{"parameterUnit":"m.s-1","parameterCategory":1,"la1":30.2992,"la2":30.254,"lo1":-89.0895,"lo2":-89.0443,"dy":0.0025,"dx":0.0025,"nx":19,"ny":19,"refTime":"2026-04-26T09:00:00:Z","depth":0,"parameterNumber":2,"parameterNumberName":"U-component_of_WINDS"},"data":[0,0,0,-1.9102,-1.9104,-1.9174,-1.9174,-1.9261,-1.9262,0,0,0,0,0,0,0,0,0,0,0,-1.908,-1.908,-1.9102,-1.9104,-1.9174,-1.9174,-1.9261,-1.9262,0,0,0,0,0,0,0,0,0,0,0,-1.9079,-1.908,-1.9081,-1.9104,-1.9174,-1.9174,-1.9261,-1.9209,0,0,0,0,0,0,0,0,0,0,-1.9141,-1.9119,-1.908,-1.9081,-1.9105,-1.9174,-1.9174,-1.9206,-1.9212,-1.9228,0,-1.9242,0,-1.9253,-1.9267,-1.9268,0,0,0,-1.9105,-1.9114,-1.9134,-1.9081,-1.9105,-1.9174,-1.9143,-1.921,-1.9216,-1.9236,-1.9243,-1.9246,-1.9255,-1.9268,-1.9268,-1.9356,-1.9357,0,0,-1.9101,-1.9091,-1.913,-1.9139,-1.9127,-1.914,-1.9145,-1.9214,-1.9221,-1.9243,-1.9248,-1.9256,-1.9269,-1.9269,-1.9356,-1.9357,0,0,0,-1.9089,-1.9089,-1.9108,-1.9135,-1.9148,-1.9142,-1.9147,-1.9218,-1.9225,-1.9249,-1.9257,-1.9269,-1.927,-1.9356,-1.9356,-1.9364,0,0,0,-1.9087,-1.9082,-1.9106,-1.91,-1.9146,-1.9184,-1.915,-1.922,-1.9228,-1.9257,-1.9269,-1.9271,-1.9355,-1.9356,-1.9363,-1.9368,0,0,0,-1.9076,-1.908,-1.909,-1.91,-1.9129,-1.9183,-1.9194,-1.9222,-1.9233,-1.9268,-1.9271,-1.9355,-1.9356,-1.9362,-1.9367,-1.9388,0,0,0,-1.9061,-1.9095,-1.909,-1.9131,-1.9129,-1.9187,-1.9193,-1.9237,-1.9268,-1.9269,-1.9355,-1.9356,-1.9361,-1.9366,-1.9387,-1.9404,-1.9411,0,0,-1.9099,-1.9099,-1.9125,-1.9122,-1.9178,-1.9177,-1.9235,-1.9272,-1.9285,-1.9332,-1.9334,-1.9363,-1.9367,-1.9388,-1.945,-1.9455,0,0,0,-1.9133,-1.9151,-1.9168,-1.9197,-1.9227,-1.9253,-1.9283,-1.9297,-1.9338,-1.9307,-1.9377,-1.938,-1.9393,-1.9401,-1.9405,-1.9417,-1.936,-1.936,-1.936,-1.9172,-1.9186,-1.9229,-1.9252,-1.928,-1.9311,-1.9335,-1.936,-1.9366,-1.9382,-1.9396,-1.9432,-1.9441,-1.9444,-1.9456,-1.9407,-1.9407,-1.9407,-1.9407,-1.9228,-1.9256,-1.9264,-1.9308,-1.9323,-1.9361,-1.9392,-1.9396,-1.9433,-1.9422,-1.9435,-1.9421,-1.9449,-1.9461,-1.9407,-1.9407,-1.9407,-1.9407,-1.9407,-1.9255,-1.927,-1.9287,-1.9331,-1.9363,-1.9385,-1.9421,-1.9434,-1.9446,-1.9458,-1.9474,-1.9474,-1.9475,-1.9465,-1.9465,-1.9465,-1.9465,-1.9465,-1.9465,-1.9275,-1.9294,-1.9322,-1.9357,-1.9377,-1.9406,-1.9438,-1.9459,-1.9485,-1.9492,-1.9492,-1.9496,-1.945,-1.9437,-1.9467,-1.9467,-1.9467,-1.9467,-1.9466,-1.9326,-1.9317,-1.936,-1.938,-1.9423,-1.9454,-1.947,-1.9511,-1.953,-1.9547,-1.955,-1.9514,-1.9515,-1.9512,-1.9502,-1.9547,-1.9547,-1.9547,-1.9547,-1.9348,-1.935,-1.9397,-1.9429,-1.9462,-1.9482,-1.9531,-1.9556,-1.9581,-1.9594,-1.9589,-1.9577,-1.9574,-1.9577,-1.9573,-1.9564,-1.9623,-1.9623,-1.9623,-1.938,-1.9386,-1.9425,-1.9449,-1.9483,-1.9512,-1.9559,-1.9596,-1.9622,-1.9627,-1.9604,-1.9601,-1.9582,-1.9575,-1.9577,-1.957,-1.9553,0,0]},{"header":{"parameterUnit":"m.s-1","parameterCategory":1,"la1":30.2992,"la2":30.254,"lo1":-89.0895,"lo2":-89.0443,"dy":0.0025,"dx":0.0025,"nx":19,"ny":19,"refTime":"2026-04-26T09:00:00:Z","depth":0,"parameterNumber":3,"parameterNumberName":"V-component_of_WINDS"},"data":[0,0,0,4.1261,4.1263,4.1336,4.1336,4.1435,4.1436,0,0,0,0,0,0,0,0,0,0,0,4.1245,4.1246,4.1261,4.1263,4.1336,4.1336,4.1435,4.1436,0,0,0,0,0,0,0,0,0,0,0,4.1244,4.1245,4.1247,4.1263,4.1335,4.1336,4.1434,4.1377,0,0,0,0,0,0,0,0,0,0,4.1305,4.1296,4.1245,4.1247,4.1263,4.1335,4.1336,4.1374,4.138,4.1405,0,4.143,0,4.1435,4.1443,4.1443,0,0,0,4.1258,4.1291,4.1306,4.1247,4.1264,4.1335,4.1301,4.1377,4.1385,4.1414,4.1431,4.1435,4.1436,4.1444,4.1444,4.1606,4.1607,0,0,4.1254,4.126,4.1301,4.1311,4.1302,4.1299,4.1304,4.1382,4.1401,4.1432,4.1437,4.1438,4.1444,4.1445,4.1605,4.1607,0,0,0,4.1246,4.1258,4.1271,4.1307,4.132,4.1301,4.1307,4.1397,4.1401,4.1438,4.1439,4.1445,4.1446,4.1604,4.1606,4.1662,0,0,0,4.1243,4.1253,4.1269,4.1274,4.1318,4.136,4.1321,4.1396,4.1404,4.1439,4.1445,4.1447,4.1603,4.1605,4.1658,4.1687,0,0,0,4.1238,4.1252,4.1265,4.1274,4.1306,4.1358,4.1367,4.1397,4.1405,4.1443,4.1448,4.1602,4.1605,4.1654,4.1681,4.1732,0,0,0,4.1234,4.1313,4.1266,4.1354,4.1305,4.1393,4.1366,4.143,4.147,4.1446,4.1603,4.1606,4.1653,4.1678,4.1728,4.1776,4.1797,0,0,4.1337,4.1325,4.1377,4.1337,4.1435,4.1381,4.1487,4.1516,4.1512,4.1574,4.1578,4.1659,4.1681,4.1731,4.1909,4.1926,0,0,0,4.1411,4.1448,4.1473,4.1512,4.1537,4.156,4.1572,4.1582,4.1636,4.1546,4.1691,4.1703,4.1733,4.1755,4.1769,4.1793,4.1616,4.1616,4.1616,4.1566,4.1559,4.1642,4.1644,4.1682,4.1694,4.1723,4.1739,4.1719,4.1753,4.1772,4.1881,4.1908,4.1918,4.1944,4.1796,4.1796,4.1797,4.1797,4.1716,4.1767,4.174,4.1812,4.1803,4.1862,4.1876,4.186,4.1913,4.1866,4.1892,4.1842,4.1937,4.1958,4.1801,4.18,4.18,4.1799,4.1799,4.1817,4.184,4.1852,4.1908,4.1951,4.1948,4.2001,4.199,4.198,4.2005,4.2023,4.2022,4.202,4.2014,4.2015,4.2015,4.2015,4.2016,4.2016,4.1917,4.1929,4.1976,4.2009,4.2032,4.2061,4.2074,4.2096,4.2117,4.2105,4.2105,4.2082,4.1948,4.1914,4.2022,4.2021,4.202,4.2019,4.2019,4.2072,4.2035,4.2108,4.2131,4.2169,4.2212,4.2197,4.2243,4.2259,4.2285,4.2256,4.2159,4.2146,4.2135,4.2107,4.2258,4.2258,4.2258,4.2258,4.2158,4.215,4.2222,4.226,4.2296,4.229,4.237,4.238,4.2384,4.2393,4.2369,4.2331,4.232,4.2314,4.2299,4.2273,4.2462,4.2463,4.2463,4.2253,4.2248,4.232,4.2325,4.2353,4.2377,4.2452,4.2495,4.2491,4.2471,4.24,4.2391,4.233,4.2311,4.2289,4.2266,4.2218,0,0]}]]